Year,Month,Day,Hour,Minute,Value (Times are PST for temperature in C)
2016,07,13,00,00,13.60
2016,07,13,00,01,13.60
2016,07,13,00,02,13.50
2016,07,13,00,03,13.50
2016,07,13,00,04,13.50
2016,07,13,00,05,13.50
2016,07,13,00,06,13.50
2016,07,13,00,07,13.50
2016,07,13,00,08,13.50
2016,07,13,00,09,13.50
2016,07,13,00,10,13.50
2016,07,13,00,11,13.50
2016,07,13,00,12,13.40
2016,07,13,00,13,13.40
2016,07,13,00,14,13.40
2016,07,13,00,15,13.40
2016,07,13,00,16,13.40
2016,07,13,00,17,13.30
2016,07,13,00,18,13.30
2016,07,13,00,19,13.30
2016,07,13,00,20,13.30
2016,07,13,00,21,13.30
2016,07,13,00,22,13.30
2016,07,13,00,23,13.30
2016,07,13,00,24,13.30
2016,07,13,00,25,13.30
2016,07,13,00,26,13.20
2016,07,13,00,27,13.20
2016,07,13,00,28,13.20
2016,07,13,00,29,13.20
2016,07,13,00,30,13.10
2016,07,13,00,31,13.10
2016,07,13,00,32,13.10
2016,07,13,00,33,13.10
2016,07,13,00,34,13.10
2016,07,13,00,35,13.00
2016,07,13,00,36,13.00
2016,07,13,00,37,12.90
2016,07,13,00,38,12.90
2016,07,13,00,39,12.90
2016,07,13,00,40,12.80
2016,07,13,00,41,12.80
2016,07,13,00,42,12.80
2016,07,13,00,43,12.80
2016,07,13,00,44,12.80
2016,07,13,00,45,12.80
2016,07,13,00,46,12.70
2016,07,13,00,47,12.70
2016,07,13,00,48,12.70
2016,07,13,00,49,12.70
2016,07,13,00,50,12.70
2016,07,13,00,51,12.70
2016,07,13,00,52,12.70
2016,07,13,00,53,12.70
2016,07,13,00,54,12.70
2016,07,13,00,55,12.70
2016,07,13,00,56,12.70
2016,07,13,00,57,12.60
2016,07,13,00,58,12.60
2016,07,13,00,59,12.60
2016,07,13,01,00,12.60
2016,07,13,01,01,12.60
2016,07,13,01,02,12.60
2016,07,13,01,03,12.60
2016,07,13,01,04,12.50
2016,07,13,01,05,12.50
2016,07,13,01,06,12.50
2016,07,13,01,07,12.50
2016,07,13,01,08,12.50
2016,07,13,01,09,12.50
2016,07,13,01,10,12.50
2016,07,13,01,11,12.50
2016,07,13,01,12,12.40
2016,07,13,01,13,12.40
2016,07,13,01,14,12.40
2016,07,13,01,15,12.40
2016,07,13,01,16,12.40
2016,07,13,01,17,12.40
2016,07,13,01,18,12.40
2016,07,13,01,19,12.40
2016,07,13,01,20,12.50
2016,07,13,01,21,12.50
2016,07,13,01,22,12.50
2016,07,13,01,23,12.60
2016,07,13,01,24,12.60
2016,07,13,01,25,12.60
2016,07,13,01,26,12.60
2016,07,13,01,27,12.60
2016,07,13,01,28,12.60
2016,07,13,01,29,12.60
2016,07,13,01,30,12.50
2016,07,13,01,31,12.50
2016,07,13,01,32,12.40
2016,07,13,01,33,12.40
2016,07,13,01,34,12.40
2016,07,13,01,35,12.40
2016,07,13,01,36,12.30
2016,07,13,01,37,12.30
2016,07,13,01,38,12.30
2016,07,13,01,39,12.20
2016,07,13,01,40,12.20
2016,07,13,01,41,12.20
2016,07,13,01,42,12.20
2016,07,13,01,43,12.20
2016,07,13,01,44,12.20
2016,07,13,01,45,12.20
2016,07,13,01,46,12.20
2016,07,13,01,47,12.20
2016,07,13,01,48,12.20
2016,07,13,01,49,12.20
2016,07,13,01,50,12.10
2016,07,13,01,51,12.10
2016,07,13,01,52,12.10
2016,07,13,01,53,12.10
2016,07,13,01,54,12.10
2016,07,13,01,55,12.10
2016,07,13,01,56,12.10
2016,07,13,01,57,12.10
2016,07,13,01,58,12.10
2016,07,13,01,59,12.10
2016,07,13,02,00,12.10
2016,07,13,02,01,12.00
2016,07,13,02,02,12.00
2016,07,13,02,03,12.00
2016,07,13,02,04,11.90
2016,07,13,02,05,11.90
2016,07,13,02,06,11.90
2016,07,13,02,07,11.90
2016,07,13,02,08,11.90
2016,07,13,02,09,11.90
2016,07,13,02,10,11.80
2016,07,13,02,11,11.80
2016,07,13,02,12,11.80
2016,07,13,02,13,11.80
2016,07,13,02,14,11.80
2016,07,13,02,15,11.80
2016,07,13,02,16,11.80
2016,07,13,02,17,11.70
2016,07,13,02,18,11.70
2016,07,13,02,19,11.70
2016,07,13,02,20,11.70
2016,07,13,02,21,11.70
2016,07,13,02,22,11.70
2016,07,13,02,23,11.60
2016,07,13,02,24,11.60
2016,07,13,02,25,11.60
2016,07,13,02,26,11.60
2016,07,13,02,27,11.60
2016,07,13,02,28,11.60
2016,07,13,02,29,11.60
2016,07,13,02,30,11.70
2016,07,13,02,31,11.70
2016,07,13,02,32,11.70
2016,07,13,02,33,11.70
2016,07,13,02,34,11.80
2016,07,13,02,35,11.80
2016,07,13,02,36,11.80
2016,07,13,02,37,11.70
2016,07,13,02,38,11.70
2016,07,13,02,39,11.70
2016,07,13,02,40,11.70
2016,07,13,02,41,11.60
2016,07,13,02,42,11.60
2016,07,13,02,43,11.60
2016,07,13,02,44,11.50
2016,07,13,02,45,11.50
2016,07,13,02,46,11.50
2016,07,13,02,47,11.40
2016,07,13,02,48,11.40
2016,07,13,02,49,11.40
2016,07,13,02,50,11.40
2016,07,13,02,51,11.40
2016,07,13,02,52,11.40
2016,07,13,02,53,11.40
2016,07,13,02,54,11.30
2016,07,13,02,55,11.30
2016,07,13,02,56,11.30
2016,07,13,02,57,11.30
2016,07,13,02,58,11.30
2016,07,13,02,59,11.30
2016,07,13,03,00,11.30
2016,07,13,03,01,11.30
2016,07,13,03,02,11.30
2016,07,13,03,03,11.30
2016,07,13,03,04,11.30
2016,07,13,03,05,11.30
2016,07,13,03,06,11.30
2016,07,13,03,07,11.30
2016,07,13,03,08,11.30
2016,07,13,03,09,11.30
2016,07,13,03,10,11.30
2016,07,13,03,11,11.20
2016,07,13,03,12,11.20
2016,07,13,03,13,11.20
2016,07,13,03,14,11.30
2016,07,13,03,15,11.20
2016,07,13,03,16,11.20
2016,07,13,03,17,11.20
2016,07,13,03,18,11.20
2016,07,13,03,19,11.30
2016,07,13,03,20,11.30
2016,07,13,03,21,11.30
2016,07,13,03,22,11.30
2016,07,13,03,23,11.20
2016,07,13,03,24,11.20
2016,07,13,03,25,11.20
2016,07,13,03,26,11.20
2016,07,13,03,27,11.20
2016,07,13,03,28,11.10
2016,07,13,03,29,11.10
2016,07,13,03,30,11.10
2016,07,13,03,31,11.10
2016,07,13,03,32,11.10
2016,07,13,03,33,11.10
2016,07,13,03,34,11.10
2016,07,13,03,35,11.10
2016,07,13,03,36,11.10
2016,07,13,03,37,11.10
2016,07,13,03,38,11.10
2016,07,13,03,39,11.10
2016,07,13,03,40,11.10
2016,07,13,03,41,11.10
2016,07,13,03,42,11.10
2016,07,13,03,43,11.00
2016,07,13,03,44,11.00
2016,07,13,03,45,11.00
2016,07,13,03,46,11.00
2016,07,13,03,47,10.90
2016,07,13,03,48,10.90
2016,07,13,03,49,10.90
2016,07,13,03,50,10.80
2016,07,13,03,51,10.80
2016,07,13,03,52,10.80
2016,07,13,03,53,10.70
2016,07,13,03,54,10.70
2016,07,13,03,55,10.70
2016,07,13,03,56,10.70
2016,07,13,03,57,10.70
2016,07,13,03,58,10.70
2016,07,13,03,59,10.70
2016,07,13,04,00,10.60
2016,07,13,04,01,10.60
2016,07,13,04,02,10.60
2016,07,13,04,03,10.60
2016,07,13,04,04,10.60
2016,07,13,04,05,10.60
2016,07,13,04,06,10.60
2016,07,13,04,07,10.60
2016,07,13,04,08,10.50
2016,07,13,04,09,10.50
2016,07,13,04,10,10.50
2016,07,13,04,11,10.40
2016,07,13,04,12,10.40
2016,07,13,04,13,10.40
2016,07,13,04,14,10.40
2016,07,13,04,15,10.40
2016,07,13,04,16,10.40
2016,07,13,04,17,10.40
2016,07,13,04,18,10.40
2016,07,13,04,19,10.40
2016,07,13,04,20,10.40
2016,07,13,04,21,10.40
2016,07,13,04,22,10.40
2016,07,13,04,23,10.30
2016,07,13,04,24,10.40
2016,07,13,04,25,10.30
2016,07,13,04,26,10.30
2016,07,13,04,27,10.30
2016,07,13,04,28,10.30
2016,07,13,04,29,10.30
2016,07,13,04,30,10.30
2016,07,13,04,31,10.30
2016,07,13,04,32,10.30
2016,07,13,04,33,10.30
2016,07,13,04,34,10.30
2016,07,13,04,35,10.30
2016,07,13,04,36,10.30
2016,07,13,04,37,10.30
2016,07,13,04,38,10.20
2016,07,13,04,39,10.20
2016,07,13,04,40,10.20
2016,07,13,04,41,10.20
2016,07,13,04,42,10.10
2016,07,13,04,43,10.10
2016,07,13,04,44,10.10
2016,07,13,04,45,10.10
2016,07,13,04,46,10.00
2016,07,13,04,47,10.00
2016,07,13,04,48,10.00
2016,07,13,04,49,10.00
2016,07,13,04,50,10.00
2016,07,13,04,51,10.00
2016,07,13,04,52,9.90
2016,07,13,04,53,9.90
2016,07,13,04,54,9.90
2016,07,13,04,55,9.90
2016,07,13,04,56,9.90
2016,07,13,04,57,9.90
2016,07,13,04,58,9.90
2016,07,13,04,59,9.90
2016,07,13,05,00,9.90
2016,07,13,05,01,9.80
2016,07,13,05,02,9.80
2016,07,13,05,03,9.80
2016,07,13,05,04,9.80
2016,07,13,05,05,9.80
2016,07,13,05,06,9.80
2016,07,13,05,07,9.70
2016,07,13,05,08,9.80
2016,07,13,05,09,9.80
2016,07,13,05,10,9.80
2016,07,13,05,11,9.80
2016,07,13,05,12,9.80
2016,07,13,05,13,9.80
2016,07,13,05,14,9.80
2016,07,13,05,15,9.80
2016,07,13,05,16,9.80
2016,07,13,05,17,9.80
2016,07,13,05,18,9.80
2016,07,13,05,19,9.80
2016,07,13,05,20,9.80
2016,07,13,05,21,9.80
2016,07,13,05,22,9.80
2016,07,13,05,23,9.80
2016,07,13,05,24,9.80
2016,07,13,05,25,9.80
2016,07,13,05,26,9.80
2016,07,13,05,27,9.80
2016,07,13,05,28,9.80
2016,07,13,05,29,9.80
2016,07,13,05,30,9.80
2016,07,13,05,31,9.80
2016,07,13,05,32,9.80
2016,07,13,05,33,9.80
2016,07,13,05,34,9.80
2016,07,13,05,35,9.80
2016,07,13,05,36,9.80
2016,07,13,05,37,9.80
2016,07,13,05,38,9.80
2016,07,13,05,39,9.80
2016,07,13,05,40,9.80
2016,07,13,05,41,9.70
2016,07,13,05,42,9.70
2016,07,13,05,43,9.70
2016,07,13,05,44,9.70
2016,07,13,05,45,9.70
2016,07,13,05,46,9.70
2016,07,13,05,47,9.70
2016,07,13,05,48,9.70
2016,07,13,05,49,9.70
2016,07,13,05,50,9.70
2016,07,13,05,51,9.70
2016,07,13,05,52,9.70
2016,07,13,05,53,9.70
2016,07,13,05,54,9.70
2016,07,13,05,55,9.70
2016,07,13,05,56,9.70
2016,07,13,05,57,9.70
2016,07,13,05,58,9.70
2016,07,13,05,59,9.70
2016,07,13,06,00,9.70
2016,07,13,06,01,9.70
2016,07,13,06,02,9.70
2016,07,13,06,03,9.70
2016,07,13,06,04,9.70
2016,07,13,06,05,9.60
2016,07,13,06,06,9.60
2016,07,13,06,07,9.60
2016,07,13,06,08,9.60
2016,07,13,06,09,9.60
2016,07,13,06,10,9.60
2016,07,13,06,11,9.60
2016,07,13,06,12,9.60
2016,07,13,06,13,9.60
2016,07,13,06,14,9.60
2016,07,13,06,15,9.60
2016,07,13,06,16,9.60
2016,07,13,06,17,9.60
2016,07,13,06,18,9.60
2016,07,13,06,19,9.60
2016,07,13,06,20,9.60
2016,07,13,06,21,9.60
2016,07,13,06,22,9.60
2016,07,13,06,23,9.60
2016,07,13,06,24,9.60
2016,07,13,06,25,9.60
2016,07,13,06,26,9.60
2016,07,13,06,27,9.60
2016,07,13,06,28,9.60
2016,07,13,06,29,9.60
2016,07,13,06,30,9.60
2016,07,13,06,31,9.60
2016,07,13,06,32,9.60
2016,07,13,06,33,9.60
2016,07,13,06,34,9.60
2016,07,13,06,35,9.60
2016,07,13,06,36,9.60
2016,07,13,06,37,9.60
2016,07,13,06,38,9.60
2016,07,13,06,39,9.60
2016,07,13,06,40,9.70
2016,07,13,06,41,9.70
2016,07,13,06,42,9.70
2016,07,13,06,43,9.70
2016,07,13,06,44,9.70
2016,07,13,06,45,9.70
2016,07,13,06,46,9.80
2016,07,13,06,47,9.80
2016,07,13,06,48,9.80
2016,07,13,06,49,9.80
2016,07,13,06,50,9.80
2016,07,13,06,51,9.90
2016,07,13,06,52,9.90
2016,07,13,06,53,9.90
2016,07,13,06,54,9.90
2016,07,13,06,55,10.00
2016,07,13,06,56,10.00
2016,07,13,06,57,10.00
2016,07,13,06,58,10.10
2016,07,13,06,59,10.10
2016,07,13,07,00,10.10
2016,07,13,07,01,10.20
2016,07,13,07,02,10.20
2016,07,13,07,03,10.20
2016,07,13,07,04,10.20
2016,07,13,07,05,10.30
2016,07,13,07,06,10.30
2016,07,13,07,07,10.30
2016,07,13,07,08,10.30
2016,07,13,07,09,10.30
2016,07,13,07,10,10.40
2016,07,13,07,11,10.40
2016,07,13,07,12,10.40
2016,07,13,07,13,10.40
2016,07,13,07,14,10.40
2016,07,13,07,15,10.50
2016,07,13,07,16,10.50
2016,07,13,07,17,10.50
2016,07,13,07,18,10.60
2016,07,13,07,19,10.60
2016,07,13,07,20,10.60
2016,07,13,07,21,10.60
2016,07,13,07,22,10.60
2016,07,13,07,23,10.70
2016,07,13,07,24,10.70
2016,07,13,07,25,10.70
2016,07,13,07,26,10.80
2016,07,13,07,27,10.80
2016,07,13,07,28,10.80
2016,07,13,07,29,10.90
2016,07,13,07,30,10.90
2016,07,13,07,31,10.90
2016,07,13,07,32,11.00
2016,07,13,07,33,11.00
2016,07,13,07,34,11.00
2016,07,13,07,35,11.10
2016,07,13,07,36,11.10
2016,07,13,07,37,11.10
2016,07,13,07,38,11.10
2016,07,13,07,39,11.10
2016,07,13,07,40,11.20
2016,07,13,07,41,11.20
2016,07,13,07,42,11.20
2016,07,13,07,43,11.30
2016,07,13,07,44,11.30
2016,07,13,07,45,11.30
2016,07,13,07,46,11.30
2016,07,13,07,47,11.30
2016,07,13,07,48,11.40
2016,07,13,07,49,11.40
2016,07,13,07,50,11.50
2016,07,13,07,51,11.50
2016,07,13,07,52,11.60
2016,07,13,07,53,11.60
2016,07,13,07,54,11.60
2016,07,13,07,55,11.70
2016,07,13,07,56,11.70
2016,07,13,07,57,11.70
2016,07,13,07,58,11.70
2016,07,13,07,59,11.70
2016,07,13,08,00,11.80
2016,07,13,08,01,11.80
2016,07,13,08,02,11.80
2016,07,13,08,03,11.90
2016,07,13,08,04,11.90
2016,07,13,08,05,12.00
2016,07,13,08,06,12.00
2016,07,13,08,07,12.10
2016,07,13,08,08,12.10
2016,07,13,08,09,12.20
2016,07,13,08,10,12.20
2016,07,13,08,11,12.30
2016,07,13,08,12,12.40
2016,07,13,08,13,12.50
2016,07,13,08,14,12.60
2016,07,13,08,15,12.70
2016,07,13,08,16,12.80
2016,07,13,08,17,12.90
2016,07,13,08,18,12.90
2016,07,13,08,19,13.00
2016,07,13,08,20,13.00
2016,07,13,08,21,13.10
2016,07,13,08,22,13.20
2016,07,13,08,23,13.20
2016,07,13,08,24,13.30
2016,07,13,08,25,13.40
2016,07,13,08,26,13.50
2016,07,13,08,27,13.60
2016,07,13,08,28,13.70
2016,07,13,08,29,13.80
2016,07,13,08,30,13.90
2016,07,13,08,31,14.00
2016,07,13,08,32,14.10
2016,07,13,08,33,14.20
2016,07,13,08,34,14.30
2016,07,13,08,35,14.40
2016,07,13,08,36,14.40
2016,07,13,08,37,14.40
2016,07,13,08,38,14.50
2016,07,13,08,39,14.60
2016,07,13,08,40,14.60
2016,07,13,08,41,14.70
2016,07,13,08,42,14.70
2016,07,13,08,43,14.70
2016,07,13,08,44,14.70
2016,07,13,08,45,14.70
2016,07,13,08,46,14.70
2016,07,13,08,47,14.70
2016,07,13,08,48,14.70
2016,07,13,08,49,14.70
2016,07,13,08,50,14.80
2016,07,13,08,51,14.80
2016,07,13,08,52,14.80
2016,07,13,08,53,14.90
2016,07,13,08,54,15.00
2016,07,13,08,55,15.10
2016,07,13,08,56,15.10
2016,07,13,08,57,15.20
2016,07,13,08,58,15.20
2016,07,13,08,59,15.30
2016,07,13,09,00,15.30
2016,07,13,09,01,15.40
2016,07,13,09,02,15.40
2016,07,13,09,03,15.40
2016,07,13,09,04,15.40
2016,07,13,09,05,15.40
2016,07,13,09,06,15.30
2016,07,13,09,07,15.30
2016,07,13,09,08,15.40
2016,07,13,09,09,15.40
2016,07,13,09,10,15.40
2016,07,13,09,11,15.50
2016,07,13,09,12,15.50
2016,07,13,09,13,15.60
2016,07,13,09,14,15.50
2016,07,13,09,15,15.50
2016,07,13,09,16,15.60
2016,07,13,09,17,15.60
2016,07,13,09,18,15.70
2016,07,13,09,19,15.70
2016,07,13,09,20,15.70
2016,07,13,09,21,15.70
2016,07,13,09,22,15.70
2016,07,13,09,23,15.70
2016,07,13,09,24,15.80
2016,07,13,09,25,15.90
2016,07,13,09,26,16.10
2016,07,13,09,27,16.20
2016,07,13,09,28,16.30
2016,07,13,09,29,16.40
2016,07,13,09,30,16.50
2016,07,13,09,31,16.60
2016,07,13,09,32,16.70
2016,07,13,09,33,16.70
2016,07,13,09,34,16.70
2016,07,13,09,35,16.70
2016,07,13,09,36,16.70
2016,07,13,09,37,16.70
2016,07,13,09,38,16.70
2016,07,13,09,39,16.70
2016,07,13,09,40,16.70
2016,07,13,09,41,16.70
2016,07,13,09,42,16.60
2016,07,13,09,43,16.60
2016,07,13,09,44,16.60
2016,07,13,09,45,16.60
2016,07,13,09,46,16.70
2016,07,13,09,47,16.80
2016,07,13,09,48,16.80
2016,07,13,09,49,16.80
2016,07,13,09,50,16.70
2016,07,13,09,51,16.70
2016,07,13,09,52,16.70
2016,07,13,09,53,16.70
2016,07,13,09,54,16.70
2016,07,13,09,55,16.70
2016,07,13,09,56,16.70
2016,07,13,09,57,16.70
2016,07,13,09,58,16.80
2016,07,13,09,59,16.80
2016,07,13,10,00,16.80
2016,07,13,10,01,16.80
2016,07,13,10,02,16.90
2016,07,13,10,03,16.90
2016,07,13,10,04,17.00
2016,07,13,10,05,17.00
2016,07,13,10,06,17.00
2016,07,13,10,07,17.10
2016,07,13,10,08,17.10
2016,07,13,10,09,17.20
2016,07,13,10,10,17.30
2016,07,13,10,11,17.30
2016,07,13,10,12,17.40
2016,07,13,10,13,17.40
2016,07,13,10,14,17.40
2016,07,13,10,15,17.50
2016,07,13,10,16,17.60
2016,07,13,10,17,17.60
2016,07,13,10,18,17.70
2016,07,13,10,19,17.70
2016,07,13,10,20,17.70
2016,07,13,10,21,17.70
2016,07,13,10,22,17.70
2016,07,13,10,23,17.60
2016,07,13,10,24,17.60
2016,07,13,10,25,17.70
2016,07,13,10,26,17.70
2016,07,13,10,27,17.80
2016,07,13,10,28,17.90
2016,07,13,10,29,18.00
2016,07,13,10,30,18.00
2016,07,13,10,31,18.00
2016,07,13,10,32,17.90
2016,07,13,10,33,18.00
2016,07,13,10,34,18.00
2016,07,13,10,35,18.10
2016,07,13,10,36,18.20
2016,07,13,10,37,18.20
2016,07,13,10,38,18.20
2016,07,13,10,39,18.20
2016,07,13,10,40,18.10
2016,07,13,10,41,18.10
2016,07,13,10,42,18.20
2016,07,13,10,43,18.20
2016,07,13,10,44,18.30
2016,07,13,10,45,18.40
2016,07,13,10,46,18.40
2016,07,13,10,47,18.40
2016,07,13,10,48,18.40
2016,07,13,10,49,18.40
2016,07,13,10,50,18.40
2016,07,13,10,51,18.40
2016,07,13,10,52,18.30
2016,07,13,10,53,18.30
2016,07,13,10,54,18.30
2016,07,13,10,55,18.30
2016,07,13,10,56,18.40
2016,07,13,10,57,18.40
2016,07,13,10,58,18.40
2016,07,13,10,59,18.50
2016,07,13,11,00,18.90
2016,07,13,11,01,19.00
2016,07,13,11,02,19.00
2016,07,13,11,03,19.10
2016,07,13,11,04,19.10
2016,07,13,11,05,19.10
2016,07,13,11,06,19.10
2016,07,13,11,07,19.10
2016,07,13,11,08,19.10
2016,07,13,11,09,19.20
2016,07,13,11,10,19.20
2016,07,13,11,11,19.20
2016,07,13,11,12,19.20
2016,07,13,11,13,19.10
2016,07,13,11,14,19.00
2016,07,13,11,15,19.00
2016,07,13,11,16,18.90
2016,07,13,11,17,18.90
2016,07,13,11,18,18.90
2016,07,13,11,19,18.90
2016,07,13,11,20,18.90
2016,07,13,11,21,18.90
2016,07,13,11,22,19.00
2016,07,13,11,23,19.00
2016,07,13,11,24,19.10
2016,07,13,11,25,19.10
2016,07,13,11,26,19.10
2016,07,13,11,27,19.10
2016,07,13,11,28,19.20
2016,07,13,11,29,19.30
2016,07,13,11,30,19.30
2016,07,13,11,31,19.40
2016,07,13,11,32,19.40
2016,07,13,11,33,19.40
2016,07,13,11,34,19.40
2016,07,13,11,35,19.50
2016,07,13,11,36,19.60
2016,07,13,11,37,19.70
2016,07,13,11,38,19.80
2016,07,13,11,39,19.90
2016,07,13,11,40,19.90
2016,07,13,11,41,19.80
2016,07,13,11,42,19.80
2016,07,13,11,43,19.80
2016,07,13,11,44,19.80
2016,07,13,11,45,19.80
2016,07,13,11,46,19.80
2016,07,13,11,47,19.90
2016,07,13,11,48,19.90
2016,07,13,11,49,19.90
2016,07,13,11,50,19.90
2016,07,13,11,51,20.00
2016,07,13,11,52,20.10
2016,07,13,11,53,20.20
2016,07,13,11,54,20.30
2016,07,13,11,55,20.30
2016,07,13,11,56,20.30
2016,07,13,11,57,20.40
2016,07,13,11,58,20.50
2016,07,13,11,59,20.60
2016,07,13,12,00,20.60
2016,07,13,12,01,20.70
2016,07,13,12,02,20.70
2016,07,13,12,03,20.70
2016,07,13,12,04,20.60
2016,07,13,12,05,20.60
2016,07,13,12,06,20.60
2016,07,13,12,07,20.60
2016,07,13,12,08,20.60
2016,07,13,12,09,20.60
2016,07,13,12,10,20.50
2016,07,13,12,11,20.50
2016,07,13,12,12,20.40
2016,07,13,12,13,20.30
2016,07,13,12,14,20.30
2016,07,13,12,15,20.30
2016,07,13,12,16,20.30
2016,07,13,12,17,20.40
2016,07,13,12,18,20.50
2016,07,13,12,19,20.50
2016,07,13,12,20,20.60
2016,07,13,12,21,20.60
2016,07,13,12,22,20.70
2016,07,13,12,23,20.70
2016,07,13,12,24,20.80
2016,07,13,12,25,20.80
2016,07,13,12,26,21.00
2016,07,13,12,27,21.10
2016,07,13,12,28,21.10
2016,07,13,12,29,21.20
2016,07,13,12,30,21.20
2016,07,13,12,31,21.20
2016,07,13,12,32,21.20
2016,07,13,12,33,21.10
2016,07,13,12,34,21.10
2016,07,13,12,35,21.10
2016,07,13,12,36,21.20
2016,07,13,12,37,21.20
2016,07,13,12,38,21.20
2016,07,13,12,39,21.20
2016,07,13,12,40,21.20
2016,07,13,12,41,21.20
2016,07,13,12,42,21.10
2016,07,13,12,43,21.10
2016,07,13,12,44,21.10
2016,07,13,12,45,21.10
2016,07,13,12,46,21.20
2016,07,13,12,47,21.10
2016,07,13,12,48,21.10
2016,07,13,12,49,21.10
2016,07,13,12,50,21.10
2016,07,13,12,51,21.10
2016,07,13,12,52,21.00
2016,07,13,12,53,21.00
2016,07,13,12,54,21.00
2016,07,13,12,55,20.90
2016,07,13,12,56,20.90
2016,07,13,12,57,20.80
2016,07,13,12,58,20.80
2016,07,13,12,59,20.70
2016,07,13,13,00,20.70
2016,07,13,13,01,20.60
2016,07,13,13,02,20.50
2016,07,13,13,03,20.50
2016,07,13,13,04,20.50
2016,07,13,13,05,20.60
2016,07,13,13,06,20.60
2016,07,13,13,07,20.60
2016,07,13,13,08,20.60
2016,07,13,13,09,20.60
2016,07,13,13,10,20.60
2016,07,13,13,11,20.60
2016,07,13,13,12,20.60
2016,07,13,13,13,20.70
2016,07,13,13,14,20.80
2016,07,13,13,15,20.90
2016,07,13,13,16,21.00
2016,07,13,13,17,21.10
2016,07,13,13,18,21.10
2016,07,13,13,19,21.20
2016,07,13,13,20,21.20
2016,07,13,13,21,21.20
2016,07,13,13,22,21.20
2016,07,13,13,23,21.30
2016,07,13,13,24,21.40
2016,07,13,13,25,21.50
2016,07,13,13,26,21.60
2016,07,13,13,27,21.60
2016,07,13,13,28,21.50
2016,07,13,13,29,21.50
2016,07,13,13,30,21.50
2016,07,13,13,31,21.50
2016,07,13,13,32,21.50
2016,07,13,13,33,21.50
2016,07,13,13,34,21.60
2016,07,13,13,35,21.60
2016,07,13,13,36,21.70
2016,07,13,13,37,21.70
2016,07,13,13,38,21.60
2016,07,13,13,39,21.60
2016,07,13,13,40,21.60
2016,07,13,13,41,21.50
2016,07,13,13,42,21.50
2016,07,13,13,43,21.50
2016,07,13,13,44,21.50
2016,07,13,13,45,21.60
2016,07,13,13,46,21.70
2016,07,13,13,47,21.80
2016,07,13,13,48,21.90
2016,07,13,13,49,22.00
2016,07,13,13,50,22.00
2016,07,13,13,51,22.00
2016,07,13,13,52,22.00
2016,07,13,13,53,21.90
2016,07,13,13,54,22.00
2016,07,13,13,55,22.00
2016,07,13,13,56,22.10
2016,07,13,13,57,22.20
2016,07,13,13,58,22.40
2016,07,13,13,59,22.50
2016,07,13,14,00,22.60
2016,07,13,14,01,22.60
2016,07,13,14,02,22.70
2016,07,13,14,03,22.90
2016,07,13,14,04,23.00
2016,07,13,14,05,23.10
2016,07,13,14,06,23.20
2016,07,13,14,07,23.10
2016,07,13,14,08,23.20
2016,07,13,14,09,23.20
2016,07,13,14,10,23.40
2016,07,13,14,11,23.40
2016,07,13,14,12,23.30
2016,07,13,14,13,23.20
2016,07,13,14,14,23.20
2016,07,13,14,15,23.10
2016,07,13,14,16,23.20
2016,07,13,14,17,23.10
2016,07,13,14,18,23.00
2016,07,13,14,19,23.00
2016,07,13,14,20,22.90
2016,07,13,14,21,23.00
2016,07,13,14,22,22.90
2016,07,13,14,23,22.90
2016,07,13,14,24,22.90
2016,07,13,14,25,22.80
2016,07,13,14,26,22.70
2016,07,13,14,27,22.70
2016,07,13,14,28,22.70
2016,07,13,14,29,22.80
2016,07,13,14,30,22.90
2016,07,13,14,31,23.00
2016,07,13,14,32,23.00
2016,07,13,14,33,22.90
2016,07,13,14,34,22.90
2016,07,13,14,35,22.90
2016,07,13,14,36,22.80
2016,07,13,14,37,22.80
2016,07,13,14,38,22.70
2016,07,13,14,39,22.70
2016,07,13,14,40,22.80
2016,07,13,14,41,23.00
2016,07,13,14,42,23.10
2016,07,13,14,43,23.20
2016,07,13,14,44,23.20
2016,07,13,14,45,23.20
2016,07,13,14,46,23.20
2016,07,13,14,47,23.20
2016,07,13,14,48,23.10
2016,07,13,14,49,23.10
2016,07,13,14,50,23.10
2016,07,13,14,51,23.10
2016,07,13,14,52,23.20
2016,07,13,14,53,23.30
2016,07,13,14,54,23.30
2016,07,13,14,55,23.30
2016,07,13,14,56,23.30
2016,07,13,14,57,23.40
2016,07,13,14,58,23.40
2016,07,13,14,59,23.50
2016,07,13,15,00,23.50
2016,07,13,15,01,23.60
2016,07,13,15,02,23.60
2016,07,13,15,03,23.50
2016,07,13,15,04,23.40
2016,07,13,15,05,23.30
2016,07,13,15,06,23.30
2016,07,13,15,07,23.30
2016,07,13,15,08,23.40
2016,07,13,15,09,23.40
2016,07,13,15,10,23.30
2016,07,13,15,11,23.30
2016,07,13,15,12,23.20
2016,07,13,15,13,23.10
2016,07,13,15,14,23.00
2016,07,13,15,15,22.90
2016,07,13,15,16,22.80
2016,07,13,15,17,22.60
2016,07,13,15,18,22.60
2016,07,13,15,19,22.60
2016,07,13,15,20,22.50
2016,07,13,15,21,22.50
2016,07,13,15,22,22.50
2016,07,13,15,23,22.50
2016,07,13,15,24,22.50
2016,07,13,15,25,22.50
2016,07,13,15,26,22.50
2016,07,13,15,27,22.50
2016,07,13,15,28,22.60
2016,07,13,15,29,22.60
2016,07,13,15,30,22.60
2016,07,13,15,31,22.60
2016,07,13,15,32,22.60
2016,07,13,15,33,22.60
2016,07,13,15,34,22.60
2016,07,13,15,35,22.70
2016,07,13,15,36,22.70
2016,07,13,15,37,22.70
2016,07,13,15,38,22.80
2016,07,13,15,39,22.80
2016,07,13,15,40,22.70
2016,07,13,15,41,22.70
2016,07,13,15,42,22.70
2016,07,13,15,43,22.70
2016,07,13,15,44,22.70
2016,07,13,15,45,22.70
2016,07,13,15,46,22.60
2016,07,13,15,47,22.60
2016,07,13,15,48,22.60
2016,07,13,15,49,22.60
2016,07,13,15,50,22.60
2016,07,13,15,51,22.60
2016,07,13,15,52,22.60
2016,07,13,15,53,22.50
2016,07,13,15,54,22.50
2016,07,13,15,55,22.50
2016,07,13,15,56,22.50
2016,07,13,15,57,22.50
2016,07,13,15,58,22.50
2016,07,13,15,59,22.50
2016,07,13,16,00,22.40
2016,07,13,16,01,22.40
2016,07,13,16,02,22.40
2016,07,13,16,03,22.40
2016,07,13,16,04,22.40
2016,07,13,16,05,22.40
2016,07,13,16,06,22.40
2016,07,13,16,07,22.40
2016,07,13,16,08,22.30
2016,07,13,16,09,22.40
2016,07,13,16,10,22.40
2016,07,13,16,11,22.30
2016,07,13,16,12,22.30
2016,07,13,16,13,22.20
2016,07,13,16,14,22.20
2016,07,13,16,15,22.20
2016,07,13,16,16,22.20
2016,07,13,16,17,22.20
2016,07,13,16,18,22.20
2016,07,13,16,19,22.30
2016,07,13,16,20,22.30
2016,07,13,16,21,22.30
2016,07,13,16,22,22.30
2016,07,13,16,23,22.20
2016,07,13,16,24,22.30
2016,07,13,16,25,22.40
2016,07,13,16,26,22.50
2016,07,13,16,27,22.60
2016,07,13,16,28,22.70
2016,07,13,16,29,22.80
2016,07,13,16,30,22.90
2016,07,13,16,31,22.90
2016,07,13,16,32,22.90
2016,07,13,16,33,22.80
2016,07,13,16,34,22.70
2016,07,13,16,35,22.50
2016,07,13,16,36,22.40
2016,07,13,16,37,22.30
2016,07,13,16,38,22.30
2016,07,13,16,39,22.30
2016,07,13,16,40,22.30
2016,07,13,16,41,22.30
2016,07,13,16,42,22.30
2016,07,13,16,43,22.20
2016,07,13,16,44,22.20
2016,07,13,16,45,22.20
2016,07,13,16,46,22.10
2016,07,13,16,47,22.00
2016,07,13,16,48,22.00
2016,07,13,16,49,21.90
2016,07,13,16,50,21.80
2016,07,13,16,51,21.80
2016,07,13,16,52,21.70
2016,07,13,16,53,21.70
2016,07,13,16,54,21.70
2016,07,13,16,55,21.70
2016,07,13,16,56,21.70
2016,07,13,16,57,21.70
2016,07,13,16,58,21.70
2016,07,13,16,59,21.70
2016,07,13,17,00,21.70
2016,07,13,17,01,21.60
2016,07,13,17,02,21.60
2016,07,13,17,03,21.60
2016,07,13,17,04,21.60
2016,07,13,17,05,21.60
2016,07,13,17,06,21.60
2016,07,13,17,07,21.60
2016,07,13,17,08,21.60
2016,07,13,17,09,21.60
2016,07,13,17,10,21.60
2016,07,13,17,11,21.60
2016,07,13,17,12,21.70
2016,07,13,17,13,21.70
2016,07,13,17,14,21.70
2016,07,13,17,15,21.60
2016,07,13,17,16,21.60
2016,07,13,17,17,21.60
2016,07,13,17,18,21.60
2016,07,13,17,19,21.70
2016,07,13,17,20,21.70
2016,07,13,17,21,21.70
2016,07,13,17,22,21.70
2016,07,13,17,23,21.70
2016,07,13,17,24,21.70